STARLINK-5186 (54177 NORAD) Tracking and Keplerian Element Data

This shows tracking and keplerian element data for the satellite.

Feedback or suggestion? Click here.




ElementValue
Catalog54177
NameSTARLINK-5186
Epoch Orbit378
Epoch Day324.91667824
Epoch Year2022
RAAN25.7633
Inclination53.2194
Eccentricity0.0003102
Argument of Perigee11.5774
Mean Anonmoly280.9989
Mean Motion15.73162341
Decay Rate0.00014849
L11 54177U 22141W 22324.91667824 .00014849 00000+0 11020-3 0 9992
L22 54177 53.2194 25.7633 0003102 11.5774 280.9989 15.73162341 3783



Live tracking and technical data element details for STARLINK-5186 (NORAD 54177). STARLINK-5186 can be tracked NOW for your location showing map with azimuth and elevation plus other details from your city location.







IsCatalogInMostPopularTable: catalog: 54177, numindb: 8
Update: records affected: 1



GetName: 54177 STARLINK-5186

Hit Count: updated at: Sun, 04 Dec 2022 22:10:09 GMT